Flag for Belgium Weather past 2 weeks in Ghent, Belgium

Now
52 °F

Light rain. Overcast.


Feels Like: 50 °F
Forecast: 50 / 60 °F
Wind: 6 mph from South

Location: Munte

Current Time: Oct 24, 2014 at 10:36:15 AM

Latest Report: Oct 24, 2014 at 10:00 AM


Visibility: 7 mi

Pressure: 30.11 "Hg

Humidity: 90%

Dew point: 49 °F

Location of GhentLocation

Historic Weather in Ghent — Graph

°F

Ghent temperature yesterday

Maximum temperature yesterday: 57 °F (at 4:00 PM)
Minimum temperature yesterday: 47 °F (at 5:00 AM)
Average temperature yesterday: 52 °F

Past Weeks' High & Low Weather Summary

 TemperatureHumidityPressure
High73 °F (Oct 18, 4:00 PM)100% (Oct 11, 12:00 PM)30.25 "Hg (Oct 11, 12:00 PM)
Low47 °F (Oct 22, 5:00 AM)55% (Oct 9, 4:00 PM)29.57 "Hg (Oct 13, 7:00 AM)
Average57 °F83%29.89 "Hg
* Reported Oct 9 9:00 AM — Oct 24 9:00 AM, Ghent, Weather by CustomWeather, © 2014

Note: Actual official high and low records may vary slightly from our data, if they occured in-between our weather recording intervals... More about our weather records

Advertising

Ghent weather history for previous 24 hours

 ConditionsComfort  
Time TempWeatherWind HumidityBarometerVisibility
9:00 AM
Oct 24
52 °FLight rain. Overcast.6 mph91%30.10 "Hg6 mi
8:00 AM52 °FLight rain. Overcast.5 mph88%30.09 "Hg9 mi
7:00 AM52 °FOvercast.6 mph86%30.10 "Hg8 mi
6:00 AM53 °FOvercast.5 mph83%30.11 "Hg11 mi
5:00 AM52 °FCool.5 mph82%30.12 "Hg10 mi
4:00 AM53 °FCool.5 mph78%30.14 "Hg12 mi
3:00 AM53 °FCool.6 mph76%30.14 "Hg12 mi
2:00 AM53 °FCool.5 mph75%30.15 "Hg12 mi
1:00 AM53 °FCool.3 mph76%30.16 "Hg12 mi
12:00 AM53 °FCool.5 mph76%30.17 "Hg12 mi
11:00 PM
Oct 23
54 °FCool.5 mph76%30.18 "Hg12 mi
10:00 PM54 °FCool.5 mph77%30.19 "Hg11 mi
9:00 PM55 °FCool.5 mph78%30.18 "Hg12 mi
8:00 PM55 °FCool.3 mph79%30.18 "Hg10 mi
7:00 PM56 °FCool.3 mph78%30.17 "Hg11 mi
6:00 PM56 °FCool.3 mph78%30.18 "Hg11 mi
5:00 PM57 °FOvercast.3 mph78%30.19 "Hg7 mi
4:00 PM57 °FOvercast.5 mph79%30.20 "Hg7 mi
3:00 PM56 °FOvercast.6 mph82%30.21 "Hg6 mi
2:00 PM55 °FOvercast.5 mph86%30.22 "Hg6 mi
1:00 PM54 °FOvercast.5 mph85%30.22 "Hg6 mi
12:00 PM54 °FOvercast.5 mph85%30.23 "Hg6 mi
11:00 AM53 °FOvercast.3 mph87%30.22 "Hg6 mi
10:00 AM51 °FOvercast.3 mph90%30.22 "Hg6 mi
Weather by CustomWeather, © 2014

See weather overviewHow to use our weather pages